Flag for Germany Weather past 2 weeks in Duisburg, North Rhine-Westphalia, Germany

Now
54 °F

Sunny.


Feels Like: 51 °F
Forecast: 43 / 62 °F
Wind: 9 mph from Northwest

Location: Duesseldorf

Current Time: Sep 22, 2014 at 9:06:45 AM

Latest Report: Sep 22, 2014 at 8:20 AM


Visibility: 10 mi

Pressure: 30.09 "Hg

Humidity: 77%

Dew point: 46 °F

Location of DuisburgLocation

Historic Weather in Duisburg — Graph

°F

Duisburg temperature yesterday

Maximum temperature yesterday: 66 °F (at 3:50 PM)
Minimum temperature yesterday: 55 °F (at 10:20 PM)
Average temperature yesterday: 62 °F

Past Weeks' High & Low Weather Summary

 TemperatureHumidityPressure
High77 °F (Sep 17, 2:20 PM)100% (Sep 8, 6:50 AM)30.24 "Hg (Sep 8, 6:50 AM)
Low46 °F (Sep 12, 5:50 AM)46% (Sep 11, 4:50 PM)29.83 "Hg (Sep 18, 4:50 AM)
Average62 °F79%30.03 "Hg
* Reported Sep 7 7:20 AM — Sep 22 7:50 AM, Duisburg, Weather by CustomWeather, © 2014

Note: Actual official high and low records may vary slightly from our data, if they occured in-between our weather recording intervals... More about our weather records

Advertising

Duisburg weather history for previous 24 hours

 ConditionsComfort  
Time TempWeatherWind HumidityBarometerVisibility
7:50 AM
Sep 22
54 °FClear.8 mph77%30.09 "Hg10 mi
7:20 AM55 °FClear.9 mph77%30.09 "Hg10 mi
6:50 AM54 °FPassing clouds.9 mph82%30.09 "HgN/A
6:20 AM54 °FPassing clouds.9 mph82%30.09 "HgN/A
5:50 AM54 °FClear.8 mph82%30.09 "Hg10 mi
5:20 AM52 °FClear.7 mph88%30.12 "Hg10 mi
4:50 AM52 °FClear.8 mph88%30.12 "Hg10 mi
4:20 AM54 °FClear.8 mph88%30.12 "Hg10 mi
3:50 AM54 °FClear.7 mph94%30.12 "Hg10 mi
3:20 AM55 °FClear.8 mph88%30.12 "Hg10 mi
2:50 AM55 °FClear.7 mph88%30.12 "Hg10 mi
2:20 AM55 °FPassing clouds.6 mph88%30.12 "HgN/A
1:50 AM55 °FPassing clouds.8 mph88%30.12 "HgN/A
1:20 AM55 °FPartly cloudy.6 mph88%30.12 "HgN/A
12:50 AM55 °FClear.7 mph82%30.12 "Hg10 mi
12:20 AM55 °FPartly cloudy.7 mph82%30.12 "HgN/A
11:50 PM
Sep 21
55 °FPassing clouds.7 mph82%30.12 "HgN/A
11:20 PM55 °FPassing clouds.7 mph82%30.09 "HgN/A
10:20 PM55 °FClear.7 mph82%30.09 "Hg10 mi
9:50 PM57 °FClear.8 mph77%30.09 "Hg10 mi
9:20 PM57 °FClear.7 mph77%30.09 "Hg10 mi
8:20 PM59 °FScattered clouds.9 mph68%30.09 "HgN/A
7:50 PM59 °FScattered clouds.13 mph68%30.07 "HgN/A
7:20 PM61 °FPartly sunny.13 mph63%30.07 "HgN/A
6:50 PM61 °FPartly sunny.13 mph63%30.07 "HgN/A
6:20 PM63 °FPassing clouds.14 mph59%30.04 "HgN/A
5:50 PM63 °FPassing clouds.15 mph56%30.04 "HgN/A
5:20 PM64 °FPassing clouds.14 mph56%30.04 "HgN/A
4:20 PM64 °FScattered clouds.13 mph60%30.04 "HgN/A
3:50 PM66 °FPassing clouds.12 mph52%30.01 "HgN/A
3:20 PM64 °FScattered clouds.10 mph56%30.04 "HgN/A
2:50 PM64 °FPartly sunny.12 mph60%30.04 "HgN/A
2:20 PM64 °FScattered showers. Partly sunny.13 mph68%30.04 "HgN/A
1:50 PM64 °FScattered clouds.9 mph68%30.04 "HgN/A
1:20 PM64 °FScattered clouds.10 mph68%30.04 "HgN/A
12:50 PM64 °FPartly sunny.14 mph73%30.04 "HgN/A
12:20 PM63 °FBroken clouds.12 mph77%30.01 "HgN/A
11:20 AM61 °FBroken clouds.12 mph88%30.01 "Hg6 mi
10:50 AM61 °FLight rain. Broken clouds.12 mph94%30.01 "Hg5 mi
10:20 AM63 °FLight rain. Broken clouds.10 mph83%30.01 "Hg5 mi
9:50 AM63 °FLight rain. Fog.9 mph88%29.98 "Hg3 mi
9:20 AM63 °FFog.6 mph88%29.98 "Hg2 mi
Weather by CustomWeather, © 2014

See weather overviewHow to use our weather pages